OBJECT D, 62380

Orbit data source: Space-Track

You're viewing an Uncataloged Satellite

Recently launched and/or uncataloged satellites may have evolving metadata. Metadata may include but not limited to: Owner, Maufacturer, Bus, Motor, and Mission.

OBJECT D, 62380 is a satellite in LEO that was launched on Sat, 21 Dec 2024 UTC via an FALCON 9 launch vehicle from the Air Force Western Test Range (AFWTR). Unknown objects in Earth's orbit typically refer to objects detected orbiting the Earth but have not yet been identified or cataloged. These objects could be anything from previously untracked satellites, spent rocket stages, debris from satellite collisions, or even natural meteoroids temporarily captured by Earth's gravity.

Loading next visibility...
OBJECT D details
Identifier
62380, 2024-247D
Orbit
LEO
Last TLE update1 day ago
Origin
Flag of TBDONDO Space (TBD)
ManufacturerONDO Space
MissionOperational Commercial Radar Imaging
Bus & MotorCUBESAT 0.5U, Unknown motor
Mass0.25 kg wet, 0.25 kg dry
Launch date (UTC)
2024-12-21 (2 months ago)
Launch vehicle
FALCON 9
Launch site
Air Force Western Test Range (AFWTR)
Object typeUnknown
Shape & HBRBox + 1 Pan, 1.5 m
Radar Cross Section0.776 m², Medium (>0.1 m² and < 1m²)

Expand to show TLE details & history

TLE from 1 day ago
0 OBJECT D
1 62380U 24247D   25035.24042358  .00013220  00000-0  61732-3 0  9991
2 62380  44.9989 119.6523 0002989 259.2212 100.8332 15.19834955  6959
Epoch: 2025-02-04T05:46Z
Definitive object data (Epoch: 2025-02-04T05:46:12.597Z)
Latitude0.00001°
Longitude-101.54872°
Altitude506.725 km
Speed7.612 km/s
True Right ascension07h 58m 36s
True Declination0° 00' 00"
Sunlit
Object was in full shadow at TLE epoch
Visualization TLE readout
Latitude-1.14776°
Longitude-108.36506°
Altitude506.523 km
Speed7.612 km/s
Apparent Right ascension04h 56m 32s
Apparent Declination-54° 13' 33"
Sunlit
Object is in full shadow
Visualization observer readout
Local Sidereal Time09:02:24
Azimuth212.652° SW
Elevation-17.844°
Doppler factor1
Orbital elements
Apogee altitude510.001 km
Perigee altitude505.885 km
Semi-major axis6,886.08 km
Eccentricity0.0002989
Inclination44.9989°
RAAN119.6523°
Arg. of periapsis259.2212°
True anomaly100.86684°
Mean anomaly100.8332°
Eccentric anomaly100.85002°
Mean motion3.79826 °/min
BSTAR0.00061732
Orbital period94.78 mins
Loading maneuver chart data...
Loading historical data...
Loading historical data...
Loading historical data...
Loading historical data...
Loading historical data...
Loading historical data...
Loading historical data...

OBJECT D Visibility forecast

Observer location: undefined°, undefined

Span
Click to sort rows by Start time (UTC) header in descending order
Start Az.
Max El. time (UTC)
Max El. Az.
Max El.
End time (UTC)
End Az.
5 mins2025-02-05 08:49:08.572Z223.917° SW2025-02-05 08:51:08.572Z144.745° SSE41.494°2025-02-05 08:54:08.572Z72.908° E
6 mins2025-02-05 10:28:08.572Z284.045° WNW2025-02-05 10:30:08.572Z331.118° NNW34.429°2025-02-05 10:34:08.572Z62.567° ENE
5 mins2025-02-05 12:08:08.572Z308.088° NW2025-02-05 12:10:08.572Z1.264° NNE33.226°2025-02-05 12:13:08.572Z74.452° E
6 mins2025-02-05 13:47:08.572Z290.911° WNW2025-02-05 13:50:08.572Z148.425° SSE43.503°2025-02-05 13:53:08.572Z119.773° SE
|